Regional Weather Roundup
Issued by NWS Little Rock, AR

Home | Current Version | Previous Version | Graphics & Text | Print | Product List | Glossary On
Versions: 1 2 3 4 5 6 7 8 9 10 11 12 13 14 15 16 17 18 19 20 21 22 23 24 25 26 27 28 29 30 31 32 33 34 35 36 37 38 39 40 41 42 43 44 45 46 47 48 49 50
000
ASUS44 KLZK 171705
RWRLZK

WEATHER ROUNDUP FOR ARKANSAS
NATIONAL WEATHER SERVICE LITTLE ROCK AR
1100 AM CST WED DEC 17 2014

NOTE: "FAIR" INDICATES FEW OR NO CLOUDS BELOW 12,000 FEET WITH NO
SIGNIFICANT WEATHER AND/OR OBSTRUCTIONS TO VISIBILITY.

ARZ001-003-010-029-171800-
NORTHWEST ARKANSAS

CITY           SKY/WX    TMP DP  RH WIND       PRES   REMARKS
FAYETTEVILLE   CLOUDY    33  30  88 CALM      30.31S
FORT SMITH     CLOUDY    36  31  82 NE5       30.36R
HARRISON       PTSUNNY   32  26  78 SE5       30.30S WCI  27
BENTONVILLE    CLOUDY    34  27  75 E3        30.31F
ROGERS         CLOUDY    35  29  78 E3        30.31S
SILOAM SPGS    CLOUDY    34  23  64 SE3       30.33S
HIGHFILL       CLOUDY    34  28  79 CALM      30.30S
SPRINGDALE     CLOUDY    34  28  80 E3        30.32F
$$

ARZ004-005-016-171800-
NORTH CENTRAL ARKANSAS

CITY           SKY/WX    TMP DP  RH WIND       PRES   REMARKS
BATESVILLE     CLOUDY    34  25  69 CALM      30.35S
FLIPPIN        MOSUNNY   32  21  64 CALM      30.32F
MTN HOME       MOSUNNY   32  25  75 CALM      30.32S
$$

ARZ040-041-171800-
WEST CENTRAL ARKANSAS

CITY           SKY/WX    TMP DP  RH WIND       PRES   REMARKS
MENA           CLOUDY    37  32  81 CALM      30.31S
MOUNT IDA      CLOUDY    37  30  75 VRB3      30.30F
$$

ARZ009-017-025-026-028-171800-
NORTHEAST ARKANSAS

CITY           SKY/WX    TMP DP  RH WIND       PRES   REMARKS
CORNING        FAIR      36  27  69 NE6       30.35F
JONESBORO      CLOUDY    35  30  82 E9        30.35F WCI  28
NEWPORT        CLOUDY    34  29  82 NE8       30.37F WCI  27
WALNUT RIDGE   PTSUNNY   36  25  64 E5        30.34F
BLYTHEVILLE    PTSUNNY   38  29  70 NE5       30.35F
$$

ARZ022-023-033-042-044-171800-
CENTRAL ARKANSAS

CITY           SKY/WX    TMP DP  RH WIND       PRES   REMARKS
LITTLE ROCK    CLOUDY    37  26  64 CALM      30.38R
N LITTLE ROCK  CLOUDY    36  29  77 E3        30.38R
JACKSONVILLE   CLOUDY    36  26  67 CALM      30.37R
SEARCY         CLOUDY    36  28  73 E6        30.37F
HOT SPRINGS    CLOUDY    37  27  67 E6        30.35S
RUSSELLVILLE   CLOUDY    38  30  73 VRB3      30.34S
CLINTON        FAIR      37  28  70 S5        30.36F
$$

ARZ036-171800-
EAST ARKANSAS

CITY           SKY/WX    TMP DP  RH WIND       PRES   REMARKS
WEST MEMPHIS   CLOUDY    38  33  82 E5        30.33F
$$

ARZ050-053-066-070-073-171800-
SOUTHWEST ARKANSAS

CITY           SKY/WX    TMP DP  RH WIND       PRES   REMARKS
ARKADELPHIA    FAIR      38  34  85 E6        30.36F
CAMDEN         CLOUDY    43  30  61 MISG      30.36F
TEXARKANA      CLOUDY    39  31  72 E7        30.33F
EL DORADO      PTSUNNY   42  33  70 NE8       30.34F
DE QUEEN       CLOUDY    38  33  82 E9        30.32F
$$

ARZ056-057-069-171800-
SOUTHEAST ARKANSAS

CITY           SKY/WX    TMP DP  RH WIND       PRES   REMARKS
PINE BLUFF     CLOUDY    38  29  70 E3        30.37F
STUTTGART      CLOUDY    37  28  70 NE7       30.35F
MONTICELLO     PTSUNNY   42  31  64 NE6       30.35F

$$





USA.gov is the U.S. government's official web portal to all federal, state and local government web resources and services.